Regional Weather Roundup
Issued by NWS Cleveland, OH

Home | Current Version | Previous Version | Graphics & Text | Print | Product List | Glossary Off
Versions: 1 2 3 4 5 6 7 8 9 10 11 12 13 14 15 16 17 18 19 20 21 22 23 24 25 26 27 28 29 30 31 32 33 34 35 36 37 38 39 40 41 42 43 44 45 46 47 48 49 50

000
ASUS41 KCLE 191612
RWRCLE
OHIO REGIONAL WEATHER ROUNDUP
NATIONAL WEATHER SERVICE WILMINGTON, OH
1100 AM EST THU JAN 19 2017

NOTE: "FAIR" INDICATES FEW OR NO CLOUDS BELOW 12,000 FEET WITH NO
SIGNIFICANT WEATHER AND/OR OBSTRUCTIONS TO VISIBILITY.

OHZ001>008-015>018-024>027-034-035-043-044-191700-
   NORTHWEST OHIO

CITY           SKY/WX    TMP DP  RH WIND       PRES   REMARKS
DEFIANCE       CLOUDY    34  31  88 CALM      30.08S
FINDLAY        CLOUDY    37  33  85 S6        30.08R
TOLEDO EXPRESS CLOUDY    35  34  96 CALM      30.08R
TOLEDO EXEC    CLOUDY    36  34  92 VRB6      30.09S FOG
LIMA           CLOUDY    36  35  96 S5        30.07R
$$

OHZ009>014-019>023-028>033-038-089-191700-
   NORTHEAST OHIO

CITY           SKY/WX    TMP DP  RH WIND       PRES   REMARKS
CLE-HOPKINS    CLOUDY    40  33  76 S5        30.11S
CLE-LAKEFRONT  CLOUDY    37  34  89 CALM      30.09S
CUY CO. ARPT   CLOUDY    39  36  87 CALM      30.09S
LORAIN-ELYRIA  CLOUDY    37  32  82 SW6       30.10R
ASHTABULA      CLOUDY    37  33  85 SW7       30.11S
AKRON-CANTON   CLOUDY    38  34  85 S5        30.09R
WOOSTER        CLOUDY    38  34  85 S3        30.09R
MANSFIELD      CLOUDY    37  36  96 S5        30.07S
YOUNGSTOWN     CLOUDY    37  33  85 VRB3      30.09S
$$

OHZ042-051>053-060>062-070>072-077>081-191700-
  SOUTHWEST OHIO

CITY           SKY/WX    TMP DP  RH WIND       PRES   REMARKS
CINC-COVINGTON CLOUDY    42  39  89 SE7       30.03F
CINC-LUNKEN    FAIR      43  39  86 N3        30.06F
HAMILTON       FAIR      43  39  86 SE5       30.06F
DAYTON         PTSUNNY   40  36  86 SE6       30.05F
WRIGHT-PAT AFB PTSUNNY   40  37  89 E9        30.04F
DAYTON GENERAL FAIR      41  37  86 E7        30.04F
WILMINGTON     FAIR      41  38  89 E8        30.05F
$$

OHZ036-037-039>041-045>050-054>059-063>069-073>076-082>088-191700-
  CENTRAL AND SOUTHEAST OHIO

CITY           SKY/WX    TMP DP  RH WIND       PRES   REMARKS
COLUMBUS       CLOUDY    40  36  86 SE6       30.09S
OSU AIRPORT    CLOUDY    39  36  89 S6        30.09R
BOLTON FIELD   CLOUDY    37  37 100 S6        30.10R
RICKENBACK AFB   N/A     39  37  92 S3        30.10S
NEWARK         CLOUDY    40  35  83 S7        30.10R
MARION         CLOUDY    38  35  89 S7        30.09R FOG
LANCASTER      CLOUDY    42  37  82 SE5       30.10F
ZANESVILLE     CLOUDY    39  35  86 SE3       30.10S
NEW PHILLY     CLOUDY    39  36  89 S3        30.11S
$$



USA.gov is the U.S. government's official web portal to all federal, state and local government web resources and services.